Weather observations for the past three days for
Bar Harbor, Hancock County-Bar Harbor Airport
Metric (Imperial)
Date Time (edt) Wind (kph) Vis. (km) Weather Sky Cond. Temperature (ºC) Relative Humidity Wind Chill (°C) Heat Index (°C) Pressure Precipitation (cm)
Air Dwpt 6 hour altimeter (cm) sea level (mb) 1 hr 3 hr 6 hr
Max. Min.
24 23:56 N 6 16.09 Fair CLR 13.3 5 57% 75.64 1008.6
24 22:56 NW 7 16.09 Fair CLR 15 5.6 54% 75.64 1008.6
24 21:56 Vrbl 7 16.09 Fair CLR 16.1 5.6 50% 75.62 1008.3
24 20:56 NW 17 16.09 Partly Cloudy SCT095 17.8 7.2 50% 75.57 1007.4
24 19:56 N 17 G 33 16.09 A Few Clouds FEW100 19.4 9.4 23.9 17.8 53% 75.44 1006.0
24 18:56 SW 9 16.09 Overcast BKN080 OVC100 18.9 11.1 61% 75.36 1004.7
24 17:56 SW 11 16.09 Overcast OVC090 20 10.6 55% 75.29 1004.0
24 16:56 S 20 16.09 Mostly Cloudy BKN090 BKN120 21.7 10.6 49% 75.26 1003.4
24 15:56 SW 19 16.09 Partly Cloudy FEW090 SCT110 23.3 10 43% 75.23 1003.2
24 14:56 SW 17 16.09 Overcast OVC090 21.1 10 49% 75.29 1003.9
24 13:56 SW 24 G 31 16.09 Fair CLR 23.3 11.1 24.4 18.3 46% 75.29 1004.0
24 12:56 S 28 16.09 Fair CLR 23.9 10 42% 25 75.34 1004.6
24 11:56 S 26 G 31 16.09 Fair CLR 23.9 10 42% 25 75.36 1005.0
24 10:56 SW 15 G 28 16.09 Fair CLR 23.9 8.9 39% 25 75.44 1005.8
24 09:56 SW 19 G 26 16.09 Fair CLR 23.3 10 43% 75.51 1006.7
24 08:56 SW 7 16.09 Fair CLR 21.1 12.8 59% 75.54 1007.3
24 07:56 Vrbl 7 16.09 Fair CLR 18.3 13.9 18.3 10 76% 75.59 1007.8
24 06:56 S 9 16.09 Fair CLR 13.9 13.3 96% 75.57 1007.5
24 05:56 SW 6 11.27 Fair CLR 12.2 12.2 100% 75.57 1007.5
24 04:56 Calm 6.44 Fog/Mist CLR 10.6 10.6 100% 75.54 1007.2
24 03:56 Calm 4.02 Fog/Mist CLR 10.6 10 96% 75.57 1007.4
24 02:56 Calm 11.27 Fair CLR 11.7 11.1 96% 75.57 1007.7
24 01:56 SW 7 14.48 Fair CLR 12.2 11.7 18.9 12.2 97% 75.57 1007.4
24 00:56 SW 11 14.48 Fair CLR 12.2 11.7 97% 75.54 1007.3
23 23:56 Calm 16.09 Fair CLR 13.3 12.2 93% 75.54 1007.2
23 22:56 SW 15 16.09 Fair CLR 15.6 14.4 93% 75.54 1007.1
23 21:56 Calm 16.09 Fair CLR 16.1 15 93% 75.49 1006.7
23 20:56 S 7 16.09 Fair CLR 17.8 15.6 87% 75.49 1006.7
23 19:56 SW 6 16.09 Fair CLR 18.3 15.6 22.2 18.3 84% 75.49 1006.5
23 18:56 S 9 16.09 Fair CLR 19.4 16.1 81% 75.46 1006.2
23 17:56 E 6 16.09 Fair CLR 19.4 16.7 84% 75.44 1006.0
23 16:56 N 11 16.09 Partly Cloudy SCT060 SCT070 19.4 16.1 81% 75.49 1006.7
23 15:56 W 13 16.09 Mostly Cloudy BKN085 21.1 16.7 76% 75.57 1007.6
23 14:56 SW 22 G 31 16.09 Partly Cloudy SCT095 21.1 15.6 71% 75.51 1006.8
23 13:56 S 15 16.09 Fair CLR 25 17.2 26.7 16.1 62% 26 75.49 1006.4
23 12:56 S 9 16.09 Fair CLR 25.6 17.2 60% 27 75.54 1007.1
23 11:56 SE 7 8.05 Fair with Haze CLR 24.4 17.2 64% 25 75.57 1007.6
23 10:56 S 11 16.09 Partly Cloudy FEW090 SCT110 22.2 16.1 68% 75.62 1008.3
23 09:56 S 11 16.09 Fair CLR 20 15.6 76% 75.62 1008.2
23 08:56 S 11 16.09 Fair CLR 17.2 13.3 78% 75.62 1008.4
23 07:56 SW 15 16.09 Fair CLR 16.1 13.3 16.1 12.8 84% 75.64 1008.4
23 06:56 S 11 16.09 Fair CLR 15 12.8 87% 75.62 1008.1
23 05:56 S 9 16.09 A Few Clouds FEW085 14.4 12.2 87% 75.64 1008.4
23 04:56 S 7 16.09 Fair CLR 12.8 11.7 93% 75.62 1008.2
23 03:56 S 7 16.09 Fair CLR 13.3 11.7 90% 75.67 1009.0
23 02:56 S 9 16.09 Fair CLR 13.9 11.7 87% 75.67 1008.9
23 01:56 S 13 16.09 A Few Clouds FEW095 14.4 12.2 17.2 14.4 87% 75.69 1009.1
23 00:56 S 13 16.09 Partly Cloudy SCT080 15 12.2 83% 75.69 1009.1
22 23:56 S 13 16.09 Partly Cloudy SCT085 15 12.8 87% 75.69 1009.4
22 22:56 S 13 16.09 Fair CLR 15 12.8 87% 75.72 1009.7
22 21:56 SW 17 16.09 Fair CLR 15.6 12.8 84% 75.77 1010.3
22 20:56 SW 17 16.09 Fair CLR 16.7 13.3 80% 75.77 1010.1
22 19:56 SW 17 16.09 Fair CLR 17.2 13.3 25.6 17.2 78% 75.74 1009.9
22 18:56 SW 19 16.09 A Few Clouds FEW100 19.4 13.9 71% 75.74 1009.9
22 17:56 SW 20 16.09 Fair CLR 21.1 15.6 71% 75.72 1009.6
22 16:56 SW 22 16.09 Fair CLR 23.3 16.7 67% 75.72 1009.6
22 15:56 SW 17 16.09 Fair CLR 25 17.2 62% 26 75.72 1009.7
22 14:56 S 13 16.09 Fair CLR 25 16.7 60% 26 75.74 1010.0
22 13:56 S 9 16.09 Fair CLR 25 17.8 25 14.4 64% 26 75.79 1010.5
22 12:56 S 15 16.09 Fair CLR 22.8 16.7 69% 75.84 1011.3
22 11:56 S 9 16.09 Fair CLR 21.1 16.1 73% 75.9 1011.9
22 10:56 S 9 16.09 Overcast OVC110 16.1 13.9 87% 75.92 1012.3
22 09:56 SW 9 16.09 Overcast FEW031 OVC100 15 13.3 90% 75.95 1012.5
22 08:56 S 15 16.09 Partly Cloudy SCT090 14.4 12.8 90% 75.97 1012.9
22 07:56 SW 11 16.09 Mostly Cloudy BKN100 14.4 12.8 15 10.6 90% 75.95 1012.7
22 06:56 S 6 16.09 Fair CLR 12.8 12.2 96% 75.95 1012.6
22 05:56 Calm 16.09 A Few Clouds FEW110 11.1 10.6 97% 75.9 1012.1
22 04:56 Calm 16.09 Fair CLR 10.6 10 96% 75.9 1011.9
22 03:56 SW 7 16.09 Fair CLR 11.1 10.6 97% 75.87 1011.5
22 02:56 S 11 16.09 Fair CLR 11.1 10.6 97% 75.9 1011.9
22 01:56 SW 11 16.09 Fair CLR 11.1 10.6 12.2 10 97% 75.92 1012.2
Date Time (edt) Wind (kph) Vis. (km) Weather Sky Cond. Air Dwpt Max. Min. Relative Humidity Wind Chill (°C) Heat Index (°C) altimeter (cm) sea level (mb) 1 hr 3 hr 6 hr
6 hour
Temperature (ºC) Pressure Precipitation (cm)